Date String (YYYY-MM-DD hh:mm:ss) UTC,Instrument flags,Ambient pressure (hPa),Sample flow (lpm),Bypass flow (lpm),Sample temperature (°C),Ambient temperature (°C),ASC tube jacket temperature (°C),LED temperature (°C),Box temperature (°C),Sample RH (%),Span deviation,Mass concentration (μg/m³),Mass concentration (μg/m³),Mass concentration (μg/m³)
DateTimeUTC,F1_M11,P_M11,Q1_M11,Q2_M11,T1_M11,T2_M11,T3_M11,T4_M11,T5_M11,U1_M11,ZSPAN_M11,X0_M11,X2_M11,X1_M11
2022-03-06 11:00:00,,0823.3,5.01,0.00,21.4,21.3,00.0,30.5,23.1,11.5,0000.0,0005.20,0003.91,0003.73
2022-03-06 11:01:00,,0823.3,4.99,0.00,21.4,21.0,00.0,30.4,22.9,11.5,0000.0,0005.17,0003.93,0003.76
2022-03-06 11:02:00,,0823.3,4.99,0.00,21.3,20.6,00.0,30.4,22.8,11.6,0000.0,0005.24,0003.96,0003.77
2022-03-06 11:03:00,,0823.4,5.00,0.00,21.2,20.4,00.0,30.4,22.7,11.6,0000.0,0005.28,0004.01,0003.81
2022-03-06 11:04:00,,0823.4,5.00,0.00,21.2,20.1,00.0,30.4,22.7,11.7,0000.0,0005.48,0004.05,0003.83
2022-03-06 11:05:00,,0823.4,5.01,0.00,21.1,20.0,00.0,30.3,22.6,11.7,0000.0,0005.57,0004.08,0003.86
2022-03-06 11:06:00,,0823.4,5.02,0.00,21.1,19.9,00.0,30.3,22.6,11.8,0000.0,0005.55,0004.09,0003.87
2022-03-06 11:07:00,,0823.4,4.99,0.00,21.0,19.9,00.0,30.3,22.5,11.8,0000.0,0005.50,0004.09,0003.88
2022-03-06 11:08:00,,0823.4,4.99,0.00,21.0,19.9,00.0,30.2,22.5,11.8,0000.0,0005.38,0004.07,0003.89
2022-03-06 11:09:00,,0823.3,5.00,0.00,21.1,20.8,00.0,30.3,22.7,11.8,0000.0,0005.46,0004.10,0003.92
2022-03-06 11:10:00,,0823.4,5.00,0.00,21.2,21.9,00.0,30.3,23.1,11.7,0000.0,0005.55,0004.14,0003.95
2022-03-06 11:11:00,,0823.3,5.01,0.00,21.4,22.5,00.0,30.4,23.3,11.5,0000.0,0005.56,0004.16,0003.98
2022-03-06 11:12:00,,0823.3,4.98,0.00,21.5,22.1,00.0,30.4,23.3,11.5,0000.0,0005.54,0004.17,0004.00
2022-03-06 11:13:00,,0823.3,5.00,0.00,21.5,21.7,00.0,30.4,23.2,11.5,0000.0,0005.58,0004.19,0004.03
2022-03-06 11:14:00,,0823.3,5.01,0.00,21.4,21.4,00.0,30.4,23.2,11.5,0000.0,0005.51,0004.19,0004.05
2022-03-06 11:15:00,,0823.3,5.00,0.00,21.4,21.0,00.0,30.3,23.0,11.5,0000.0,0005.53,0004.23,0004.08
2022-03-06 11:16:00,,0823.3,5.00,0.00,21.3,20.7,00.0,30.3,22.9,11.5,0000.0,0005.57,0004.26,0004.11
2022-03-06 11:17:00,,0823.3,5.00,0.00,21.3,20.5,00.0,30.3,22.8,11.5,0000.0,0005.61,0004.30,0004.15
2022-03-06 11:18:00,,0823.3,5.00,0.00,21.2,20.3,00.0,30.3,22.7,11.5,0000.0,0005.65,0004.31,0004.16
2022-03-06 11:19:00,,0823.3,5.00,0.00,21.1,20.1,00.0,30.3,22.6,11.6,0000.0,0005.74,0004.34,0004.18
2022-03-06 11:20:00,,0823.3,5.00,0.00,21.1,19.9,00.0,30.2,22.5,11.7,0000.0,0005.84,0004.37,0004.19
2022-03-06 11:21:00,,0823.4,5.01,0.00,21.0,19.8,00.0,30.2,22.5,11.7,0000.0,0005.79,0004.36,0004.18
2022-03-06 11:22:00,,0823.4,5.00,0.00,20.9,19.9,00.0,30.2,22.4,11.8,0000.0,0005.86,0004.35,0004.16
2022-03-06 11:23:00,,0823.5,4.99,0.00,21.0,20.9,00.0,30.2,22.7,11.8,0000.0,0005.82,0004.32,0004.14
2022-03-06 11:24:00,,0823.5,5.00,0.00,21.2,22.0,00.0,30.3,23.0,11.7,0000.0,0005.78,0004.31,0004.12
2022-03-06 11:25:00,,0823.5,5.01,0.00,21.4,22.4,00.0,30.3,23.3,11.6,0000.0,0005.79,0004.30,0004.12
2022-03-06 11:26:00,,0823.5,5.00,0.00,21.4,21.9,00.0,30.3,23.2,11.5,0000.0,0005.72,0004.28,0004.11
2022-03-06 11:27:00,,0823.5,4.99,0.00,21.4,21.5,00.0,30.3,23.1,11.5,0000.0,0005.87,0004.29,0004.11
2022-03-06 11:28:00,,0823.5,5.01,0.00,21.3,21.1,00.0,30.3,22.9,11.6,0000.0,0005.89,0004.28,0004.11
2022-03-06 11:29:00,,0823.5,4.99,0.00,21.3,20.9,00.0,30.3,22.8,11.6,0000.0,0005.88,0004.29,0004.12
2022-03-06 11:30:00,,0823.6,5.00,0.00,21.2,20.6,00.0,30.3,22.7,11.6,0000.0,0005.80,0004.27,0004.11
2022-03-06 11:31:00,,0823.6,5.02,0.00,21.1,20.4,00.0,30.3,22.6,11.7,0000.0,0005.67,0004.25,0004.11
2022-03-06 11:32:00,,0823.6,5.00,0.00,21.1,20.2,00.0,30.2,22.5,11.7,0000.0,0005.64,0004.26,0004.13
2022-03-06 11:33:00,,0823.6,4.99,0.00,21.0,20.0,00.0,30.2,22.4,11.8,0000.0,0006.25,0004.28,0004.15
2022-03-06 11:34:00,,0823.6,4.99,0.00,20.9,19.8,00.0,30.2,22.3,11.8,0000.0,0007.24,0004.33,0004.19
2022-03-06 11:35:00,,0823.6,5.00,0.00,21.0,20.6,00.0,30.2,22.5,11.8,0000.0,0007.28,0004.36,0004.23
2022-03-06 11:36:00,,0823.6,5.00,0.00,21.1,21.7,00.0,30.2,22.9,11.7,0000.0,0007.26,0004.37,0004.25
2022-03-06 11:37:00,,0823.6,5.01,0.00,21.3,22.4,00.0,30.3,23.2,11.6,0000.0,0007.16,0004.37,0004.27
2022-03-06 11:38:00,,0823.7,5.00,0.00,21.4,22.0,00.0,30.3,23.2,11.5,0000.0,0007.02,0004.39,0004.30
2022-03-06 11:39:00,,0823.7,4.99,0.00,21.4,21.5,00.0,30.3,23.1,11.5,0000.0,0007.07,0004.42,0004.32
2022-03-06 11:40:00,,0823.7,5.01,0.00,21.3,21.0,00.0,30.3,22.9,11.6,0000.0,0007.18,0004.45,0004.33
2022-03-06 11:41:00,,0823.6,5.00,0.00,21.2,20.7,00.0,30.3,22.8,11.6,0000.0,0007.23,0004.46,0004.33
2022-03-06 11:42:00,,0823.7,4.99,0.00,21.2,20.4,00.0,30.2,22.7,11.7,0000.0,0007.25,0004.47,0004.35
2022-03-06 11:43:00,,0823.7,5.00,0.00,21.1,20.2,00.0,30.2,22.6,11.8,0000.0,0007.28,0004.48,0004.35
2022-03-06 11:44:00,,0823.7,5.02,0.00,21.0,20.0,00.0,30.2,22.5,11.8,0000.0,0007.06,0004.50,0004.36
2022-03-06 11:45:00,,0823.7,4.99,0.00,21.0,19.9,00.0,30.2,22.4,11.9,0000.0,0005.88,0004.53,0004.37
2022-03-06 11:46:00,,0823.7,4.99,0.00,20.9,19.7,00.0,30.1,22.3,11.9,0000.0,0005.83,0004.52,0004.37
2022-03-06 11:47:00,,0823.7,5.01,0.00,20.8,19.5,00.0,30.1,22.2,11.9,0000.0,0005.85,0004.53,0004.38
2022-03-06 11:48:00,,0823.7,4.99,0.00,20.8,20.0,00.0,30.1,22.3,12.0,0000.0,0005.88,0004.54,0004.39
2022-03-06 11:49:00,,0823.8,5.01,0.00,21.0,21.2,00.0,30.1,22.7,11.9,0000.0,0005.99,0004.56,0004.38
2022-03-06 11:50:00,,0823.8,5.00,0.00,21.2,22.2,00.0,30.2,23.1,11.8,0000.0,0005.97,0004.56,0004.38
2022-03-06 11:51:00,,0823.8,5.00,0.00,21.3,22.1,00.0,30.2,23.2,11.7,0000.0,0005.98,0004.57,0004.39
2022-03-06 11:52:00,,0823.8,5.00,0.00,21.3,21.6,00.0,30.2,23.1,11.7,0000.0,0005.94,0004.57,0004.40
2022-03-06 11:53:00,,0823.8,4.99,0.00,21.3,21.3,00.0,30.2,23.0,11.7,0000.0,0006.86,0004.59,0004.41
2022-03-06 11:54:00,,0823.9,5.01,0.00,21.2,21.1,00.0,30.2,22.9,11.8,0000.0,0007.11,0004.60,0004.44
2022-03-06 11:55:00,,0823.8,5.00,0.00,21.2,20.9,00.0,30.2,22.8,11.8,0000.0,0007.09,0004.61,0004.45
2022-03-06 11:56:00,,0823.9,5.00,0.00,21.2,20.7,00.0,30.2,22.7,11.8,0000.0,0006.89,0004.58,0004.45
2022-03-06 11:57:00,,0823.9,5.00,0.00,21.1,20.5,00.0,30.2,22.7,11.9,0000.0,0006.96,0004.60,0004.47
2022-03-06 11:58:00,,0823.8,4.99,0.00,21.1,20.3,00.0,30.2,22.6,11.9,0000.0,0007.12,0004.61,0004.47
2022-03-06 11:59:00,,0823.9,5.00,0.00,21.0,20.2,00.0,30.1,22.5,11.9,0000.0,0007.14,0004.59,0004.45
